Perry, FL

11:18 AM EST on November 21, 2017 (GMT -0500)
Perry

Weather History for K40J - May, 2013

Change the Weather History Date:

Monday, May 27, 2013

  Actual Average (KVLD) Record (KVLD)
Temperature  
Mean Temperature 75 °F -  
Max Temperature 91 °F 86 °F 95 °F (2000)
Min Temperature 59 °F 63 °F 55 °F (2005)
Cooling Degree Days 10    
Growing Degree Days 25 (Base 50)    
Moisture  
Dew Point 55 °F    
Average Humidity 56    
Maximum Humidity 88    
Minimum Humidity 19    
Precipitation  
Precipitation 0.08 in - - ()
Sea Level Pressure  
Sea Level Pressure 30.17 in    
Wind  
Wind Speed 5 mph (ESE)    
Max Wind Speed 12 mph    
Max Gust Speed 22 mph    
Visibility 10 miles    
Events      
Averages and records for this station are not official NWS values.
T = Trace of Precipitation, MM = Missing Value Source: NWS Daily Summary

Daily Weather History Graph

Daily Weather History Graph

Search for Another Location

Airport or City:

Trip Planner

Search our weather history database for the weather conditions in past years. The results will help you decide how hot, cold, wet, or windy it might be!

Date:

Astronomy

May. 27, 2013 Rise Set
Actual Time 6:34 AM EDT 8:28 PM EDT
Civil Twilight 6:08 AM EDT 8:55 PM EDT
Nautical Twilight 5:35 AM EDT 9:27 PM EDT
Astronomical Twilight 5:01 AM EDT 10:02 PM EDT
Moon 11:11 PM EDT (5/27) 9:08 AM EDT (5/27)
Length of Visible Light 14h 47m
Length of Day
13h 53m
Waning Gibbous, 91% of the Moon is Illuminated
May 27
Waning Gibbous
May 31
Last Quarter
Jun 8
New
Jun 16
First Quarter
Jun 23
Full

Hourly Weather History & Observations

Time (EDT) Temp. Heat Index Dew Point Humidity Pressure Visibility Wind Dir Wind Speed Gust Speed Precip Events Conditions
12:15 AM 68.0 °F - 62.6 °F 83% 30.20 in 10.0 mi ESE 5.8 mph - N/A   Clear
12:35 AM 68.0 °F - 59.0 °F 73% 30.20 in 10.0 mi ESE 6.9 mph - N/A   Clear
12:53 AM 69.1 °F - 57.9 °F 68% 30.19 in - SE 8.1 mph - 0.01 in   Unknown
12:55 AM 68.0 °F - 59.0 °F 73% 30.20 in 10.0 mi ESE 8.1 mph - N/A   Clear
1:15 AM 68.0 °F - 57.2 °F 68% 30.19 in 10.0 mi SE 6.9 mph - N/A   Clear
1:35 AM 68.0 °F - 55.4 °F 64% 30.19 in 10.0 mi SE 8.1 mph - N/A   Clear
1:53 AM 68.0 °F - 55.9 °F 65% 30.18 in - SE 6.9 mph - 0.01 in   Unknown
1:55 AM 66.2 °F - 55.4 °F 68% 30.19 in 10.0 mi SE 5.8 mph - N/A   Clear
2:15 AM 64.4 °F - 55.4 °F 73% 30.19 in 10.0 mi ESE 4.6 mph - N/A   Clear
2:35 AM 64.4 °F - 55.4 °F 73% 30.18 in 10.0 mi ESE 3.5 mph - N/A   Clear
2:53 AM 64.9 °F - 55.9 °F 73% 30.17 in - SE 3.5 mph - 0.02 in   Unknown
2:55 AM 64.4 °F - 55.4 °F 73% 30.18 in 10.0 mi SE 3.5 mph - N/A   Clear
3:15 AM 62.6 °F - 55.4 °F 77% 30.18 in 10.0 mi ESE 3.5 mph - N/A   Clear
3:35 AM 62.6 °F - 55.4 °F 77% 30.18 in 10.0 mi ESE 3.5 mph - N/A   Clear
3:53 AM 63.0 °F - 55.0 °F 75% 30.17 in - ESE 4.6 mph - 0.01 in   Unknown
3:55 AM 62.6 °F - 55.4 °F 77% 30.18 in 10.0 mi ESE 4.6 mph - N/A   Clear
4:15 AM 60.8 °F - 55.4 °F 82% 30.18 in 10.0 mi ESE 4.6 mph - N/A   Clear
4:35 AM 60.8 °F - 55.4 °F 82% 30.18 in 10.0 mi ESE 4.6 mph - N/A   Clear
4:53 AM 62.1 °F - 55.0 °F 78% 30.17 in - ESE 4.6 mph - N/A   Unknown
4:55 AM 60.8 °F - 55.4 °F 82% 30.18 in 10.0 mi ESE 4.6 mph - N/A   Clear
5:15 AM 60.8 °F - 55.4 °F 82% 30.18 in 10.0 mi ESE 3.5 mph - N/A   Clear
5:35 AM 60.8 °F - 55.4 °F 82% 30.18 in 10.0 mi ESE 3.5 mph - N/A   Clear
5:53 AM 61.0 °F - 55.0 °F 81% 30.17 in - ESE 3.5 mph - N/A   Unknown
5:55 AM 59.0 °F - 55.4 °F 88% 30.18 in 10.0 mi ESE 4.6 mph - N/A   Clear
6:15 AM 59.0 °F - 55.4 °F 88% 30.18 in 10.0 mi ESE 3.5 mph - N/A   Clear
6:35 AM 60.8 °F - 55.4 °F 82% 30.19 in 10.0 mi Calm Calm - N/A   Clear
6:53 AM 61.0 °F - 55.9 °F 83% 30.19 in - Calm Calm - 0.01 in   Unknown
6:55 AM 59.0 °F - 55.4 °F 88% 30.20 in 10.0 mi Calm Calm - N/A   Clear
7:15 AM 60.8 °F - 55.4 °F 82% 30.20 in 10.0 mi Calm Calm - N/A   Clear
7:35 AM 62.6 °F - 59.0 °F 88% 30.21 in 10.0 mi East 3.5 mph - N/A   Clear
7:53 AM 66.9 °F - 57.9 °F 73% 30.19 in - Variable 3.5 mph - N/A   Unknown
7:55 AM 64.4 °F - 59.0 °F 83% 30.21 in 10.0 mi Calm Calm - N/A   Clear
8:15 AM 68.0 °F - 59.0 °F 73% 30.21 in 10.0 mi ESE 3.5 mph - N/A   Clear
8:35 AM 68.0 °F - 59.0 °F 73% 30.22 in 10.0 mi Calm Calm - N/A   Clear
8:53 AM 72.0 °F - 60.1 °F 66% 30.20 in - Calm Calm - N/A   Unknown
8:55 AM 69.8 °F - 60.8 °F 73% 30.22 in 10.0 mi Calm Calm - N/A   Clear
9:15 AM 71.6 °F - 60.8 °F 69% 30.21 in 10.0 mi East 3.5 mph - N/A   Clear
9:35 AM 73.4 °F - 60.8 °F 65% 30.22 in 10.0 mi Calm Calm - N/A   Clear
9:53 AM 77.0 °F - 61.0 °F 58% 30.20 in - Calm Calm - N/A   Unknown
9:55 AM 73.4 °F - 60.8 °F 65% 30.21 in 10.0 mi Calm Calm - N/A   Clear
10:15 AM 77.0 °F - 53.6 °F 44% 30.22 in 10.0 mi South 3.5 mph - N/A   Clear
10:35 AM 78.8 °F - 53.6 °F 42% 30.22 in 10.0 mi East 4.6 mph - N/A   Clear
10:53 AM 82.0 °F 81.3 °F 54.0 °F 38% 30.21 in - Variable 4.6 mph - N/A   Unknown
10:55 AM 78.8 °F - 50.0 °F 36% 30.22 in 10.0 mi ENE 3.5 mph - N/A   Clear
11:15 AM 78.8 °F - 51.8 °F 39% 30.22 in 10.0 mi ESE 4.6 mph - N/A   Clear
11:35 AM 80.6 °F 80.3 °F 53.6 °F 39% 30.21 in 10.0 mi SE 4.6 mph - N/A   Clear
11:53 AM 84.0 °F 82.9 °F 55.0 °F 37% 30.20 in - Variable 3.5 mph - N/A   Unknown
11:55 AM 82.4 °F - 51.8 °F 35% 30.21 in 10.0 mi ENE 4.6 mph - N/A   Clear
12:15 PM 82.4 °F - 50.0 °F 32% 30.21 in 10.0 mi East 3.5 mph - N/A   Clear
12:35 PM 82.4 °F - 50.0 °F 32% 30.20 in 10.0 mi ENE 8.1 mph - N/A   Clear
12:53 PM 86.0 °F - 52.0 °F 31% 30.18 in - ENE 8.1 mph 16.1 mph N/A   Unknown
12:55 PM 86.0 °F - 50.0 °F 29% 30.19 in 10.0 mi East 8.1 mph - N/A   Clear
1:15 PM 86.0 °F - 46.4 °F 25% 30.19 in 10.0 mi East 5.8 mph 10.4 mph N/A   Clear
1:35 PM 86.0 °F - 44.6 °F 23% 30.18 in 10.0 mi ENE 11.5 mph - N/A   Clear
1:53 PM 88.0 °F - 48.9 °F 26% 30.17 in - NE 6.9 mph - N/A   Unknown
1:55 PM 86.0 °F - 44.6 °F 23% 30.18 in 10.0 mi NE 6.9 mph - N/A   Clear
2:15 PM 86.0 °F - 42.8 °F 22% 30.18 in 10.0 mi East 6.9 mph - N/A   Clear
2:35 PM 86.0 °F - 42.8 °F 22% 30.17 in 10.0 mi NE 5.8 mph 21.9 mph N/A   Clear
2:53 PM 90.0 °F - 46.9 °F 23% 30.14 in - SE 9.2 mph 16.1 mph N/A   Unknown
2:55 PM 87.8 °F - 41.0 °F 19% 30.16 in 10.0 mi ESE 8.1 mph - N/A   Clear
3:15 PM 87.8 °F - 41.0 °F 19% 30.15 in 10.0 mi ENE 8.1 mph - N/A   Clear
3:35 PM 87.8 °F - 41.0 °F 19% 30.14 in 10.0 mi Calm Calm - N/A   Clear
3:53 PM 89.1 °F - 48.0 °F 24% 30.12 in - ESE 4.6 mph - N/A   Unknown
3:55 PM 87.8 °F - 42.8 °F 21% 30.13 in 10.0 mi ESE 4.6 mph - N/A   Clear
4:15 PM 87.8 °F - 42.8 °F 21% 30.12 in 10.0 mi East 3.5 mph - N/A   Clear
4:35 PM 87.8 °F - 44.6 °F 22% 30.12 in 10.0 mi SE 6.9 mph - N/A   Clear
4:53 PM 91.0 °F - 48.9 °F 23% 30.10 in - SE 6.9 mph - N/A   Unknown
4:55 PM 87.8 °F - 42.8 °F 21% 30.12 in 10.0 mi SE 6.9 mph - N/A   Clear
5:15 PM 87.8 °F - 42.8 °F 21% 30.11 in 10.0 mi SE 9.2 mph - N/A   Clear
5:35 PM 86.0 °F 84.5 °F 55.4 °F 35% 30.11 in 10.0 mi SSW 4.6 mph - N/A   Clear
5:53 PM 86.0 °F 86.3 °F 62.1 °F 44% 30.09 in - SW 11.5 mph - N/A   Unknown
5:55 PM 86.0 °F 86.1 °F 60.8 °F 43% 30.11 in 10.0 mi SW 10.4 mph - N/A   Clear
6:15 PM 84.2 °F 83.5 °F 57.2 °F 40% 30.10 in 10.0 mi Calm Calm - N/A   Clear
6:35 PM 84.2 °F 83.8 °F 59.0 °F 42% 30.10 in 10.0 mi SW 5.8 mph - N/A   Clear
6:53 PM 84.9 °F 85.0 °F 61.0 °F 44% 30.08 in - SW 6.9 mph - N/A   Unknown
6:55 PM 82.4 °F 82.5 °F 59.0 °F 45% 30.10 in 10.0 mi SW 6.9 mph - N/A   Clear
7:15 PM 82.4 °F 82.9 °F 60.8 °F 48% 30.10 in 10.0 mi SW 6.9 mph - N/A   Clear
7:35 PM 80.6 °F 81.8 °F 62.6 °F 54% 30.10 in 10.0 mi SW 8.1 mph - N/A   Clear
7:53 PM 80.1 °F 81.5 °F 63.0 °F 56% 30.09 in - SW 6.9 mph - N/A   Unknown
7:55 PM 78.8 °F - 62.6 °F 57% 30.10 in 10.0 mi SW 6.9 mph - N/A   Clear
8:15 PM 77.0 °F - 62.6 °F 61% 30.11 in 10.0 mi SW 5.8 mph - N/A   Clear
8:35 PM 75.2 °F - 62.6 °F 65% 30.11 in 10.0 mi SW 3.5 mph - N/A   Clear
8:53 PM 75.0 °F - 63.0 °F 66% 30.10 in - Calm Calm - 0.01 in   Unknown
8:55 PM 73.4 °F - 62.6 °F 69% 30.12 in 10.0 mi Calm Calm - N/A   Clear
9:15 PM 73.4 °F - 62.6 °F 69% 30.12 in 10.0 mi Calm Calm - N/A   Clear
9:35 PM 71.6 °F - 62.6 °F 73% 30.12 in 10.0 mi Calm Calm - N/A   Clear
9:53 PM 73.0 °F - 64.0 °F 73% 30.12 in - East 3.5 mph - N/A   Unknown
9:55 PM 71.6 °F - 62.6 °F 73% 30.14 in 10.0 mi Calm Calm - N/A   Clear
10:15 PM 71.6 °F - 62.6 °F 73% 30.14 in 10.0 mi East 6.9 mph - N/A   Clear
10:35 PM 73.4 °F - 60.8 °F 65% 30.15 in 10.0 mi Calm Calm - N/A   Clear
10:53 PM 75.0 °F - 60.1 °F 60% 30.14 in - East 4.6 mph - N/A   Unknown
10:55 PM 73.4 °F - 59.0 °F 61% 30.16 in 10.0 mi East 4.6 mph - N/A   Clear
11:15 PM 73.4 °F - 59.0 °F 61% 30.16 in 10.0 mi East 8.1 mph - N/A   Clear
11:35 PM 71.6 °F - 59.0 °F 64% 30.16 in 10.0 mi East 10.4 mph - N/A   Clear
11:53 PM 73.9 °F - 59.0 °F 59% 30.15 in - ESE 9.2 mph - 0.01 in   Unknown
11:55 PM 71.6 °F - 59.0 °F 64% 30.16 in 10.0 mi East 6.9 mph - N/A   Clear